Location: Orange
(33.2833°S, 149.1000°E)
Time: 19:46:04
(UTC+11:00)

Hubble Space Telescope - Pass Details

Date: 05 October 2022
Orbit: 530 x 534 km, 28.5° (Epoch: 04 December)

Event Time Altitude Azimuth Distance (km) Brightness Sun altitude
Exits shadow 06:04:21 - 283° (WNW) 1,845 2.8 -7.4°
Reaches altitude 10° 06:04:30 10° 284° (WNW) 1,788 2.7 -7.4°
Maximum altitude 06:08:21 37° 352° (N) 837 1.6 -6.6°
Drops below altitude 10° 06:12:11 10° 60° (ENE) 1,786 4.3 -5.8°
Sets 06:14:33 0° 68° (ENE) 2,675 5.5 -5.3°
